Location: Cahas Mountain Overlook
(37.0833°N, 80.1000°W)
Time: 17:37:31
(UTC-05:00)

X-37B - Pass Details

Date: 04 December 2022
Orbit: 277 x 277 km, 45.0° (Epoch: 01 November)

Event Time Altitude Azimuth Distance (km) Brightness Sun altitude
Rises 18:27:00 0° 211° (SSW) 1,896 4.8 -16.3°
Reaches altitude 10° 18:29:12 10° 191° (S) 1,088 3.2 -16.8°
Enters shadow 18:30:16 16° 167° (SSE) 815 2.2 -17.0°
